FW2982 Weather Reports


time (UTC)temp
C
wind
direction
speed
KPH
gust
KPH
rain 1hr
cm
rain 24hr
cm
rain mn
cm
humidity
%
barometer
mb
20260509040728 13 266 0.0 6.4 0.00 0.00 0.00 58 1009.8
20260509040510 13 343 0.0 4.8 0.00 0.00 0.00 58 1009.8
20260509035728 13 216 0.0 3.2 0.00 0.00 0.00 59 1009.8
20260509035509 13 279 0.0 3.2 0.00 0.00 0.00 60 1009.9
20260509034728 13 279 0.0 4.8 0.00 0.00 0.00 59 1009.8
20260509034512 13 252 0.0 4.8 0.00 0.00 0.00 60 1009.9
20260509033727 13 309 0.0 3.2 0.00 0.00 0.00 60 1009.8
20260509033227 13 313 0.0 3.2 0.00 0.00 0.00 61 1009.9
20260509032727 13 314 0.0 3.2 0.00 0.00 0.00 62 1009.9
20260509032224 13 0 0.0 3.2 0.00 0.00 0.00 62 1009.8
20260509031724 13 8 0.0 4.8 0.00 0.00 0.00 63 1009.9
20260509031225 13 17 1.6 4.8 0.00 0.00 0.00 63 1010.1
20260509030720 13 31 0.0 1.6 0.00 0.00 0.00 62 1010.1
20260509030504 13 31 0.0 1.6 0.00 0.00 0.00 61 1010.1
20260509025722 13 31 0.0 1.6 0.00 0.00 0.00 61 1010.1
20260509025221 13 31 0.0 1.6 0.00 0.00 0.00 62 1010.1
20260509024721 13 31 0.0 1.6 0.00 0.00 0.00 62 1010.1
20260509024219 13 31 0.0 1.6 0.00 0.00 0.00 60 1010.2
20260509023957 13 42 0.0 1.6 0.00 0.00 0.00 59 1010.2
20260509023217 13 42 0.0 1.6 0.00 0.00 0.00 59 1010.1
20260509022716 14 42 0.0 1.6 0.00 0.00 0.00 59 1010.1
20260509022215 14 42 0.0 1.6 0.00 0.00 0.00 59 1010.1
20260509021717 14 42 0.0 1.6 0.00 0.00 0.00 59 1010.1
20260509021216 14 42 0.0 1.6 0.00 0.00 0.00 58 1010.1
20260509020954 14 42 0.0 1.6 0.00 0.00 0.00 57 1010.0
20260509020451 14 42 0.0 1.6 0.00 0.00 0.00 57 1010.0
20260509015713 15 42 0.0 1.6 0.00 0.00 0.00 56 1010.0
20260509015211 15 42 0.0 1.6 0.00 0.00 0.00 57 1009.9
20260509014951 15 42 0.0 1.6 0.00 0.00 0.00 57 1009.9
20260509014211 15 42 0.0 1.6 0.00 0.00 0.00 57 1009.9
20260509013711 15 42 0.0 0.0 0.00 0.00 0.00 57 1009.9
20260509013450 15 42 0.0 1.6 0.00 0.00 0.00 56 1010.0
20260509012709 15 42 0.0 1.6 0.00 0.00 0.00 55 1010.0
20260509012210 15 42 0.0 1.6 0.00 0.00 0.00 55 1010.0
20260509011707 15 42 0.0 3.2 0.00 0.00 0.00 55 1010.0
20260509011207 15 42 0.0 3.2 0.00 0.00 0.00 57 1009.9
20260509010708 16 165 0.0 1.6 0.00 0.00 0.00 56 1009.9
20260509010207 16 165 0.0 1.6 0.00 0.00 0.00 54 1009.8
20260509005731 16 165 0.0 1.6 0.00 0.00 0.00 52 1009.7
20260509005721 16 165 0.0 0.0 0.00 0.00 0.00 54 1009.8
20260509004943 17 165 0.0 1.6 0.00 0.00 0.00 51 1009.7
20260509004202 17 165 0.0 1.6 0.00 0.00 0.00 50 1009.6
20260509003702 17 165 0.0 0.0 0.00 0.00 0.00 49 1009.6
20260509003445 18 165 0.0 1.6 0.00 0.00 0.00 48 1009.5
20260509002941 18 165 0.0 1.6 0.00 0.00 0.00 48 1009.5
20260509002203 18 166 0.0 1.6 0.00 0.00 0.00 48 1009.5
20260509001704 18 166 0.0 1.6 0.00 0.00 0.00 46 1009.5
20260509001201 18 165 0.0 0.0 0.00 0.00 0.00 47 1009.5
20260509000703 18 165 0.0 1.6 0.00 0.00 0.00 46 1009.4
20260509000145 18 165 0.0 3.2 0.00 0.00 0.00 45 1009.3
20260508235644 18 165 1.6 3.2 0.00 0.00 0.00 44 1009.2
20260508235425 18 245 0.0 1.6 0.00 0.00 0.00 45 1009.1
20260508234645 18 245 0.0 1.6 0.00 0.00 0.00 45 1009.1
20260508234419 19 245 0.0 3.2 0.00 0.00 0.00 45 1009.2
20260508233639 19 245 0.0 4.8 0.00 0.00 0.00 45 1009.2
20260508233139 19 247 0.0 4.8 0.00 0.00 0.00 45 1009.2
20260508232641 19 110 0.0 3.2 0.00 0.00 0.00 44 1009.1
20260508232137 19 104 0.0 3.2 0.00 0.00 0.00 44 1009.1
20260508231637 19 103 0.0 3.2 0.00 0.00 0.00 44 1009.1
20260508231131 19 149 1.6 3.2 0.00 0.00 0.00 42 1009.0
20260508230909 20 120 0.0 3.2 0.00 0.00 0.00 42 1009.0
20260508230123 20 118 0.0 8.0 0.00 0.00 0.00 42 1009.1
20260508225624 20 188 3.2 8.0 0.00 0.00 0.00 40 1009.0
20260508225403 20 237 3.2 8.0 0.00 0.00 0.00 40 1008.9
20260508224953 20 255 0.0 1.6 0.00 0.00 0.00 39 1008.8
20260508224700 20 210 3.2 8.0 0.00 0.00 0.00 39 1008.9
20260508224423 20 58 1.6 6.4 0.00 0.00 0.00 41 1008.8
20260508223121 20 257 0.0 3.2 0.00 0.00 0.00 39 1008.8
20260508222620 20 257 0.0 3.2 0.00 0.00 0.00 38 1008.8
20260508222122 21 257 0.0 1.6 0.00 0.00 0.00 40 1008.9
20260508221621 21 257 0.0 3.2 0.00 0.00 0.00 37 1008.9
20260508221121 21 257 1.6 3.2 0.00 0.00 0.00 38 1008.9
20260508220620 21 320 0.0 3.2 0.00 0.00 0.00 36 1009.0
20260508220401 21 320 0.0 3.2 0.00 0.00 0.00 34 1009.0
20260508215620 21 4 0.0 4.8 0.00 0.00 0.00 35 1009.0
20260508215120 21 209 0.0 6.4 0.00 0.00 0.00 33 1009.0
20260508214619 22 206 3.2 16.1 0.00 0.00 0.00 32 1008.9
20260508214358 22 265 3.2 16.1 0.00 0.00 0.00 31 1008.8
20260508213621 22 209 4.8 6.4 0.00 0.00 0.00 31 1008.8
20260508213121 22 283 1.6 9.7 0.00 0.00 0.00 33 1008.9
20260508212620 22 344 4.8 9.7 0.00 0.00 0.00 32 1008.9
20260508212119 22 220 1.6 6.4 0.00 0.00 0.00 33 1009.0
20260508211857 22 154 3.2 6.4 0.00 0.00 0.00 33 1009.0
20260508211119 22 344 1.6 4.8 0.00 0.00 0.00 34 1009.0
20260508210619 22 243 1.6 4.8 0.00 0.00 0.00 34 1008.9
20260508210120 22 247 3.2 9.7 0.00 0.00 0.00 32 1008.9
20260508205618 22 135 0.0 9.7 0.00 0.00 0.00 31 1008.9
20260508205118 22 276 3.2 8.0 0.00 0.00 0.00 31 1009.1
20260508204619 22 279 3.2 8.0 0.00 0.00 0.00 29 1009.0
20260508204118 22 326 3.2 11.3 0.00 0.00 0.00 33 1009.1
20260508203855 23 345 4.8 11.3 0.00 0.00 0.00 32 1009.2
20260508203119 23 238 3.2 8.0 0.00 0.00 0.00 30 1009.2
20260508202620 23 217 3.2 9.7 0.00 0.00 0.00 32 1009.2
20260508202118 23 188 3.2 11.3 0.00 0.00 0.00 32 1009.3
20260508201859 23 196 3.2 11.3 0.00 0.00 0.00 30 1009.3
20260508201117 23 265 4.8 8.0 0.00 0.00 0.00 32 1009.5
20260508200617 23 255 3.2 14.5 0.00 0.00 0.00 32 1009.4
20260508200142 22 199 3.2 14.5 0.00 0.00 0.00 32 1009.4
20260508200133 22 303 4.8 14.5 0.00 0.00 0.00 31 1009.4
20260508195359 22 196 1.6 14.5 0.00 0.00 0.00 30 1009.6
20260508194617 23 257 3.2 9.7 0.00 0.00 0.00 31 1009.6
20260508194118 22 278 3.2 8.0 0.00 0.00 0.00 31 1009.8
20260508193619 22 243 1.6 9.7 0.00 0.00 0.00 34 1009.9
20260508193117 23 278 3.2 9.7 0.00 0.00 0.00 34 1010.0
20260508192618 22 264 3.2 8.0 0.00 0.00 0.00 36 1010.0
20260508192117 23 45 3.2 11.3 0.00 0.00 0.00 36 1009.9
20260508191618 23 173 3.2 17.7 0.00 0.00 0.00 32 1010.0
20260508191117 23 254 6.4 17.7 0.00 0.00 0.00 31 1010.1
20260508190616 23 202 3.2 11.3 0.00 0.00 0.00 31 1010.2
20260508190116 23 233 4.8 11.3 0.00 0.00 0.00 33 1010.4
20260508185619 23 324 3.2 11.3 0.00 0.00 0.00 34 1010.3
20260508185357 23 207 4.8 8.0 0.00 0.00 0.00 32 1010.4
20260508184855 22 223 0.0 8.0 0.00 0.00 0.00 34 1010.5
20260508184115 22 161 1.6 8.0 0.00 0.00 0.00 36 1010.5
20260508183616 22 324 1.6 8.0 0.00 0.00 0.00 34 1010.7
20260508183116 22 278 3.2 6.4 0.00 0.00 0.00 34 1010.7
20260508182615 22 327 1.6 9.7 0.00 0.00 0.00 33 1010.8
20260508182116 22 272 1.6 9.7 0.00 0.00 0.00 35 1010.8
20260508181642 23 228 1.6 9.7 0.00 0.00 0.00 35 1010.7
20260508181633 23 250 1.6 6.4 0.00 0.00 0.00 32 1010.8
20260508180853 23 307 3.2 9.7 0.00 0.00 0.00 32 1010.8
20260508180144 22 334 4.8 9.7 0.00 0.00 0.00 31 1011.1
20260508180134 23 107 3.2 9.7 0.00 0.00 0.00 35 1010.9
20260508175115 22 298 4.8 14.5 0.00 0.00 0.00 33 1011.1
20260508174615 23 251 3.2 14.5 0.00 0.00 0.00 34 1011.1
20260508174115 23 258 3.2 11.3 0.00 0.00 0.00 32 1011.0
20260508173615 23 302 4.8 11.3 0.00 0.00 0.00 32 1011.0
20260508173113 23 247 4.8 11.3 0.00 0.00 0.00 34 1011.2
20260508172853 23 309 4.8 14.5 0.00 0.00 0.00 33 1011.2
20260508172110 23 55 3.2 14.5 0.00 0.00 0.00 31 1011.3
20260508171851 23 197 3.2 8.0 0.00 0.00 0.00 36 1011.5
20260508171111 22 259 4.8 11.3 0.00 0.00 0.00 33 1011.4
20260508170611 22 224 3.2 11.3 0.00 0.00 0.00 32 1011.6
20260508170111 23 189 4.8 11.3 0.00 0.00 0.00 31 1011.7
20260508165609 23 271 1.6 6.4 0.00 0.00 0.00 35 1011.6
20260508165109 23 259 3.2 8.0 0.00 0.00 0.00 36 1011.7
20260508164847 23 21 3.2 8.0 0.00 0.00 0.00 37 1011.7
20260508164107 23 207 3.2 8.0 0.00 0.00 0.00 36 1011.8
20260508163606 23 313 3.2 8.0 0.00 0.00 0.00 35 1011.9
20260508163105 22 226 3.2 11.3 0.00 0.00 0.00 35 1011.8
20260508162845 23 250 3.2 11.3 0.00 0.00 0.00 36 1012.0
20260508162103 22 200 4.8 9.7 0.00 0.00 0.00 33 1012.1
20260508161603 23 320 1.6 11.3 0.00 0.00 0.00 38 1012.3
20260508161103 22 293 4.8 11.3 0.00 0.00 0.00 35 1012.3
20260508160604 21 358 4.8 9.7 0.00 0.00 0.00 33 1012.4
20260508160103 22 302 3.2 8.0 0.00 0.00 0.00 32 1012.5
20260508155538 22 62 3.2 11.3 0.00 0.00 0.00 36 1012.5
20260508155128 22 286 3.2 9.7 0.00 0.00 0.00 39 1012.6
20260508155115 21 285 4.8 16.1 0.00 0.00 0.00 35 1012.5
20260508154837 22 247 6.4 16.1 0.00 0.00 0.00 35 1012.7
20260508153534 21 259 3.2 8.0 0.00 0.00 0.00 36 1012.6
20260508153031 21 240 3.2 11.3 0.00 0.00 0.00 36 1012.6
20260508152532 22 279 4.8 11.3 0.00 0.00 0.00 37 1012.7
20260508152031 21 275 4.8 9.7 0.00 0.00 0.00 35 1012.7
20260508151526 22 14 0.0 8.0 0.00 0.00 0.00 38 1012.8
20260508151027 22 42 3.2 9.7 0.00 0.00 0.00 37 1013.0
20260508150527 22 262 4.8 20.9 0.00 0.00 0.00 36 1013.0
20260508150029 22 210 6.4 20.9 0.00 0.00 0.00 36 1013.0
20260508145526 22 288 6.4 16.1 0.00 0.00 0.00 36 1013.1
20260508145307 22 261 3.2 6.4 0.00 0.00 0.00 38 1013.1
20260508144804 22 299 1.6 6.4 0.00 0.00 0.00 38 1013.1
20260508144024 21 69 1.6 6.4 0.00 0.00 0.00 40 1013.1
20260508143524 20 281 1.6 6.4 0.00 0.00 0.00 38 1013.2
20260508143302 20 223 1.6 6.4 0.00 0.00 0.00 38 1013.2
20260508142522 20 302 1.6 6.4 0.00 0.00 0.00 42 1013.2
20260508142300 20 11 1.6 8.0 0.00 0.00 0.00 41 1013.3
20260508141518 20 213 3.2 8.0 0.00 0.00 0.00 40 1013.3
20260508141021 20 257 1.6 6.4 0.00 0.00 0.00 42 1013.3
20260508140520 19 41 1.6 6.4 0.00 0.00 0.00 41 1013.3
20260508140020 19 227 1.6 6.4 0.00 0.00 0.00 43 1013.4
20260508135518 19 223 1.6 3.2 0.00 0.00 0.00 42 1013.3
20260508135017 18 255 0.0 3.2 0.00 0.00 0.00 46 1013.3
20260508134757 18 245 0.0 8.0 0.00 0.00 0.00 44 1013.4
20260508134017 18 243 3.2 8.0 0.00 0.00 0.00 42 1013.4
20260508133516 19 289 0.0 6.4 0.00 0.00 0.00 44 1013.6
20260508133015 18 7 0.0 6.4 0.00 0.00 0.00 45 1013.5
20260508132516 18 343 0.0 11.3 0.00 0.00 0.00 44 1013.6
20260508132254 18 285 1.6 11.3 0.00 0.00 0.00 44 1013.6
20260508131510 18 347 0.0 4.8 0.00 0.00 0.00 46 1013.6
20260508131011 18 227 1.6 4.8 0.00 0.00 0.00 45 1013.7
20260508130511 18 343 0.0 9.7 0.00 0.00 0.00 49 1013.7
20260508130011 18 331 1.6 9.7 0.00 0.00 0.00 49 1013.7
20260508125509 17 281 0.0 4.8 0.00 0.00 0.00 51 1013.7
20260508125008 17 333 3.2 4.8 0.00 0.00 0.00 52 1013.8
20260508124508 17 316 0.0 4.8 0.00 0.00 0.00 54 1013.8
20260508124008 17 355 1.6 4.8 0.00 0.00 0.00 50 1013.8
20260508123508 17 336 1.6 4.8 0.00 0.00 0.00 56 1013.7
20260508123312 16 241 0.0 1.6 0.00 0.00 0.00 59 1013.6
20260508123306 16 241 0.0 1.6 0.00 0.00 0.00 57 1013.8
20260508122007 16 293 0.0 1.6 0.00 0.00 0.00 62 1013.6
20260508121508 15 293 0.0 3.2 0.00 0.00 0.00 63 1013.5
20260508121008 15 293 0.0 3.2 0.00 0.00 0.00 65 1013.6
20260508120811 14 274 0.0 1.6 0.00 0.00 0.00 71 1013.5
20260508120807 15 274 0.0 3.2 0.00 0.00 0.00 67 1013.6
20260508115507 12 269 0.0 0.0 0.00 0.00 0.00 75 1013.4
20260508115007 11 269 0.0 0.0 0.00 0.00 0.00 76 1013.4
20260508114507 10 269 0.0 0.0 0.00 0.00 0.00 79 1013.3
20260508114008 10 269 0.0 0.0 0.00 0.00 0.00 81 1013.4
20260508113506 9 269 0.0 0.0 0.00 0.00 0.00 81 1013.3
20260508113245 8 269 0.0 0.0 0.00 0.00 0.00 84 1013.2
20260508112906 7 269 0.0 0.0 0.00 0.00 0.00 88 1013.1
20260508112814 8 269 0.0 0.0 0.00 0.00 0.00 86 1013.1
20260508112718 6 269 0.0 0.0 0.00 0.00 0.00 89 1013.0
20260508111527 6 269 0.0 0.0 0.00 0.00 0.00 89 1013.0
20260508111249 6 269 0.0 0.0 0.00 0.00 0.00 90 1012.8
20260508111209 5 269 0.0 0.0 0.00 0.00 0.00 90 1012.8
20260508111135 5 269 0.0 0.0 0.00 0.00 0.00 90 1012.6
20260508111125 5 269 0.0 0.0 0.00 0.00 0.00 90 1012.8
20260508111118 5 269 0.0 0.0 0.00 0.00 0.00 90 1012.8
20260508104516 5 269 0.0 0.0 0.00 0.00 0.00 90 1012.5
20260508104005 5 269 0.0 0.0 0.00 0.00 0.00 89 1012.6
20260508103505 5 269 0.0 0.0 0.00 0.00 0.00 88 1012.5
20260508103247 5 269 0.0 0.0 0.00 0.00 0.00 88 1012.5
20260508102504 5 269 0.0 0.0 0.00 0.00 0.00 88 1012.5
20260508102005 5 269 0.0 0.0 0.00 0.00 0.00 88 1012.4
20260508101503 5 269 0.0 0.0 0.00 0.00 0.00 88 1012.4
20260508101002 5 269 0.0 0.0 0.00 0.00 0.00 87 1012.3
20260508100745 5 269 0.0 0.0 0.00 0.00 0.00 86 1012.3
20260508100002 5 269 0.0 0.0 0.00 0.00 0.00 86 1012.1
20260508095503 5 269 0.0 0.0 0.00 0.00 0.00 86 1012.1
20260508095005 5 269 0.0 0.0 0.00 0.00 0.00 86 1012.0
20260508094740 5 269 0.0 0.0 0.00 0.00 0.00 86 1011.9
20260508094002 6 269 0.0 0.0 0.00 0.00 0.00 86 1012.0
20260508093502 6 269 0.0 0.0 0.00 0.00 0.00 86 1012.0
20260508093242 6 269 0.0 0.0 0.00 0.00 0.00 86 1012.0
20260508092502 6 269 0.0 0.0 0.00 0.00 0.00 85 1012.0
20260508092002 6 269 0.0 0.0 0.00 0.00 0.00 84 1012.0
20260508091454 6 269 0.0 1.6 0.00 0.00 0.00 84 1012.0
20260508090952 6 269 0.0 1.6 0.00 0.00 0.00 83 1011.9
20260508090452 6 269 0.0 3.2 0.00 0.00 0.00 82 1012.0
20260508085954 7 269 0.0 3.2 0.00 0.00 0.00 81 1011.8
20260508085452 7 269 0.0 3.2 0.00 0.00 0.00 80 1011.7
20260508084953 7 269 0.0 6.4 0.00 0.00 0.00 79 1011.7
20260508084733 7 266 0.0 6.4 0.00 0.00 0.00 78 1011.6
20260508083932 8 243 0.0 3.2 0.00 0.00 0.00 74 1011.6
20260508083433 8 243 0.0 3.2 0.00 0.00 0.00 71 1011.6
20260508083214 8 295 0.0 4.8 0.00 0.00 0.00 69 1011.6
20260508082431 8 295 0.0 4.8 0.00 0.00 0.00 69 1011.5
20260508081931 8 347 0.0 1.6 0.00 0.00 0.00 68 1011.5
20260508081430 9 347 0.0 3.2 0.00 0.00 0.00 68 1011.4
20260508080931 9 21 0.0 4.8 0.00 0.00 0.00 69 1011.3
20260508080432 9 238 1.6 4.8 0.00 0.00 0.00 69 1011.4
20260508075931 8 289 0.0 6.4 0.00 0.00 0.00 69 1011.4
20260508075431 8 289 1.6 6.4 0.00 0.00 0.00 70 1011.3
20260508074931 8 47 0.0 4.8 0.00 0.00 0.00 71 1011.2
20260508074430 8 48 0.0 6.4 0.00 0.00 0.00 73 1011.1
20260508073929 8 312 1.6 6.4 0.00 0.00 0.00 75 1011.1
20260508073430 8 230 1.6 4.8 0.00 0.00 0.00 77 1011.0
20260508072919 7 272 1.6 4.8 0.00 0.00 0.00 78 1010.9
20260508072419 7 309 0.0 0.0 0.00 0.00 0.00 77 1010.8
20260508071917 7 309 0.0 0.0 0.00 0.00 0.00 78 1010.8
20260508071419 8 309 0.0 0.0 0.00 0.00 0.00 78 1010.6
20260508071157 8 309 0.0 0.0 0.00 0.00 0.00 78 1010.6
20260508070415 8 309 0.0 1.6 0.00 0.00 0.00 77 1010.5
20260508070158 8 309 0.0 3.2 0.00 0.00 0.00 78 1010.6
20260508065414 8 309 0.0 3.2 0.00 0.00 0.00 78 1010.4
20260508064912 8 305 0.0 1.6 0.00 0.00 0.00 78 1010.4
20260508064408 8 305 1.6 1.6 0.00 0.00 0.00 79 1010.3
20260508063907 8 305 0.0 1.6 0.00 0.00 0.00 79 1010.4
20260508063409 8 305 0.0 3.2 0.00 0.00 0.00 80 1010.2
20260508063148 8 305 0.0 3.2 0.00 0.00 0.00 81 1010.1
20260508062404 8 310 1.6 3.2 0.00 0.00 0.00 82 1010.1
20260508061926 8 300 0.0 3.2 0.00 0.00 0.00 87 1010.1
20260508061918 8 10 0.0 3.2 0.00 0.00 0.00 84 1010.2
20260508060903 7 300 0.0 3.2 0.00 0.00 0.00 90 1010.0
20260508060403 7 300 0.0 3.2 0.00 0.00 0.00 92 1010.1
20260508055903 7 298 0.0 3.2 0.00 0.00 0.00 92 1010.1
20260508055401 7 298 0.0 3.2 0.00 0.00 0.00 92 1010.1
20260508054900 7 97 0.0 0.0 0.00 0.00 0.00 92 1010.2
20260508054400 7 97 0.0 0.0 0.00 0.00 0.00 93 1010.1
20260508053858 7 97 0.0 0.0 0.00 0.03 0.00 93 1010.1
20260508053359 7 97 0.0 0.0 0.00 0.03 0.00 92 1010.1
20260508052859 7 97 0.0 1.6 0.00 0.03 0.00 92 1010.1
20260508052358 7 97 0.0 1.6 0.00 0.03 0.00 92 1010.1
20260508051858 8 97 0.0 1.6 0.00 0.03 0.00 92 1010.1
20260508051639 8 97 0.0 0.0 0.00 0.03 0.00 92 1010.0
20260508050857 8 97 0.0 0.0 0.00 0.03 0.00 91 1010.0
20260508050400 8 97 0.0 0.0 0.00 0.03 0.00 92 1010.0
20260508045857 8 97 0.0 0.0 0.00 0.03 0.00 92 1009.9
20260508045356 8 97 0.0 0.0 0.00 0.03 0.00 92 1009.9
20260508044857 8 97 0.0 0.0 0.00 0.03 0.00 91 1009.9
20260508044355 8 97 0.0 0.0 0.00 0.03 0.00 91 1009.7
20260508043856 8 97 0.0 0.0 0.00 0.03 0.00 91 1009.6
20260508043358 8 97 0.0 0.0 0.00 0.03 0.00 91 1009.5
20260508042854 8 97 0.0 0.0 0.00 0.03 0.00 91 1009.6
20260508042353 8 97 0.0 1.6 0.00 0.03 0.00 91 1009.5
20260508041853 8 97 0.0 1.6 0.00 0.03 0.00 91 1009.4
20260508041351 8 100 0.0 0.0 0.00 0.03 0.00 91 1009.4